Weather Service Report


164 
ASUS41 KALY 271010
RWRALY

NEW YORK STATE HOURLY WEATHER ROUNDUP
NATIONAL WEATHER SERVICE ALBANY NY
600 AM EDT TUE JUN 27 2017

NOTE: "FAIR" INDICATES FEW OR NO CLOUDS BELOW 12,000 FEET WITH NO
SIGNIFICANT WEATHER AND/OR NO OBSTRUCTIONS TO VISIBILITY.

NYZ032-033-038>043-046>054-057>066-NYZ062>081-082-084-271100-
EAST

  
CITY           SKY/WX    TMP DP  RH WIND       PRES   REMARKS
ALBANY         CLOUDY    56  54  93 CALM      29.99S                  
GLENS FALLS    PTCLDY    53  52  96 CALM      30.00R FOG              
POUGHKEEPSIE   NOT AVBL                                               
NEWBURGH       MOCLDY    57  57 100 CALM      30.01R                  
WHITE PLAINS   LGT RAIN  59  57  94 CALM      30.03  FOG              
ISLIP          MOCLDY    63  59  87 CALM      30.00                   
NEW YORK CITY  RAIN      63  58  83 CALM      30.02R                  
CENTRAL PARK   LGT RAIN  61  60  97 CALM      30.04S FOG              
$$

NYZ005>009-017-018-044>046-055-056-271100-
CENTRAL

  
CITY           SKY/WX    TMP DP  RH WIND       PRES   REMARKS
FULTON         CLEAR     50  49  96 SE3       29.94S FOG              
SYRACUSE       PTCLDY    55  52  89 S3        29.94R                  
ROME           CLEAR     51  50  96 SE8       29.98R                  
ELMIRA         NOT AVBL                                               
BINGHAMTON     NOT AVBL                                               
$$

NYZ026>034-041>043-087-271100-
NORTH

  
CITY           SKY/WX    TMP DP  RH WIND       PRES   REMARKS
WATERTOWN      CLEAR     53  52  96 CALM      29.93S                  
FORT DRUM      NOT AVBL                                               
OGDENSBURG     MOCLDY    52  52  98 CALM      29.94R                  
MASSENA        CLOUDY    51  51 100 CALM      29.94S                  
SARANAC LAKE   FOG       39  39 100 CALM      29.95S VSB 1            
PLATTSBURGH    NOT AVBL                                               
$$

NYZ001>004-010>016-019>021-085-271100-
WEST

  
CITY           SKY/WX    TMP DP  RH WIND       PRES   REMARKS
NIAGARA FALLS  LGT RAIN  55  50  83 W6        29.94S                  
BUFFALO        LGT RAIN  54  49  83 W13       29.95R                  
DUNKIRK        CLOUDY    52  50  93 S8        29.96F                  
JAMESTOWN      CLOUDY    50  46  87 S5        29.98F                  
WELLSVILLE     CLOUDY    50  46  86 S5        30.00F                  
ROCHESTER      LGT RAIN  56  52  86 SW10      29.95R                  
PENN YAN       CLOUDY    55  48  77 S9        29.97S                  
$$

             KEY
       WCI = WIND CHILL INDEX
       VSB = VISIBILITY
       HX  = HEAT INDEX
$$
  

Return to Home page


Western Regional Climate Center, wrcc@dri.edu